[[{"header":{"parameterUnit":"m.s-1","parameterCategory":1,"la1":30.2991,"la2":30.254,"lo1":-89.0895,"lo2":-89.0444,"dy":0.0017,"dx":0.0017,"nx":28,"ny":28,"refTime":"2024-08-03T09:00:00:Z","depth":0,"parameterNumber":2,"parameterNumberName":"U-component_of_WINDS"},"data":[0,0,0,0,0,0,0,0,0,0,0,0,0,0,0,0,0,0,0,0,0,0,0,0,0,0,0,0,0,0,0,0,0,0,0,0,0,0,0,0,0,0,0,0,0,0,0,0,0,0,0,0,0,0,0,0,0,0,1.7686,1.7686,0,1.7709,1.7709,1.7709,1.7678,1.7677,1.7676,1.7675,1.7698,1.77,1.7701,0,0,0,0,0,0,0,0,0,0,0,0,0,1.7616,1.7618,1.7686,1.7686,1.7686,1.7709,1.7709,1.7709,1.7679,1.7677,1.7676,1.7675,1.7698,1.77,1.7702,0,0,0,0,0,0,0,0,0,0,0,0,0,1.7643,1.7618,1.7686,1.7674,1.7673,1.7709,1.7709,1.7709,1.7679,1.7677,1.7676,1.7674,1.7697,1.7699,1.7702,1.775,0,0,1.7709,1.771,0,0,0,0,0,0,0,0,1.7642,1.7646,1.7675,1.7675,1.7674,1.7689,1.7693,1.7723,1.7679,1.7677,1.7675,1.7673,1.7696,1.7699,1.7707,1.7751,1.7752,1.771,1.7711,1.7712,1.7713,0,0,0,0,0,0,0,1.764,1.7645,1.7695,1.7676,1.7675,1.7667,1.7669,1.7698,1.7696,1.7677,1.7675,1.7678,1.7696,1.7705,1.7707,1.7753,1.771,1.7712,1.7713,1.7714,1.7839,1.7841,0,0,0,0,0,0,1.764,1.7643,1.7694,1.7696,1.7653,1.767,1.7672,1.7686,1.7695,1.7695,1.7679,1.7676,1.7701,1.7704,1.7708,1.7766,1.7712,1.7714,1.7716,1.7837,1.784,1.7842,0,0,0,0,0,0,1.7638,1.7644,1.7693,1.7669,1.7675,1.7673,1.7688,1.7687,1.7696,1.7697,1.7696,1.7689,1.77,1.7704,1.774,1.7766,1.7716,1.7718,1.7835,1.7838,1.7841,1.7882,0,0,0,0,0,0,1.7636,1.7644,1.7662,1.767,1.7676,1.7725,1.769,1.7689,1.77,1.7697,1.7706,1.7706,1.7699,1.7737,1.7743,1.7769,1.772,1.7833,1.7837,1.784,1.7879,1.7886,1.7892,0,0,0,0,0,1.7634,1.7673,1.7663,1.767,1.7699,1.7727,1.773,1.7722,1.7702,1.7721,1.7722,1.7705,1.7762,1.7741,1.7747,1.7774,1.7831,1.7836,1.784,1.7875,1.7885,1.7892,0,0,0,0,0,0,1.7668,1.7673,1.7663,1.7705,1.7716,1.7722,1.7745,1.7732,1.7748,1.7744,1.7733,1.7736,1.7774,1.7778,1.7753,1.7822,1.7794,1.7799,1.7819,1.7827,1.7834,1.7833,1.7722,0,0,0,0,0,1.7681,1.7703,1.7706,1.7743,1.7749,1.7746,1.7758,1.7751,1.7761,1.7765,1.7769,1.778,1.78,1.7814,1.7833,1.7879,1.7881,1.7901,1.7908,1.7913,1.7919,1.7944,1.7954,1.7855,1.7855,1.7855,0,0,1.7707,1.7712,1.7727,1.775,1.7758,1.7781,1.775,1.7776,1.7794,1.7769,1.7804,1.7807,1.7818,1.786,1.7878,1.7864,1.7946,1.7919,1.7923,1.7925,1.795,1.7959,1.7967,1.7858,1.7858,1.7857,0,0,1.7766,1.7773,1.7805,1.7813,1.7824,1.7822,1.783,1.7838,1.7839,1.7873,1.7856,1.7877,1.7912,1.7921,1.793,1.7995,1.7981,1.8001,1.8038,1.8063,1.8071,1.8078,1.8102,1.811,1.8006,1.8006,1.8006,0,1.7797,1.7832,1.7823,1.785,1.7862,1.7841,1.7874,1.7882,1.7899,1.7908,1.7891,1.7936,1.7942,1.7986,1.8002,1.801,1.8019,1.8,1.8071,1.8077,1.8084,1.8106,1.8115,1.8009,1.8009,1.8008,1.8008,0,1.787,1.7895,1.7919,1.7937,1.7951,1.7981,1.7976,1.7991,1.7983,1.7983,1.8019,1.8025,1.8046,1.8056,1.8047,1.8099,1.809,1.8072,1.8043,1.8096,1.8117,1.8125,1.8012,1.8011,1.8011,1.801,0,0,1.7952,1.7964,1.7974,1.7982,1.7994,1.8013,1.8042,1.8062,1.8076,1.8089,1.8113,1.8144,1.8129,1.8139,1.8132,1.8154,1.8206,1.8134,1.8134,1.8148,1.8264,1.8278,1.8288,1.8197,1.8198,1.8199,1.8264,0,1.8012,1.8063,1.8056,1.8105,1.8128,1.811,1.8135,1.8146,1.8146,1.8166,1.8167,1.8189,1.8166,1.8173,1.8194,1.8195,1.8229,1.819,1.822,1.8221,1.8219,1.8299,1.8313,1.8373,1.8272,1.8273,1.8274,0,1.8089,1.8106,1.8157,1.8167,1.8176,1.8199,1.8218,1.8237,1.8248,1.8247,1.826,1.8249,1.8279,1.8249,1.8291,1.8265,1.8276,1.8279,1.8281,1.8284,1.8251,1.8305,1.8392,1.8402,1.8287,1.8286,1.8285,0,1.8145,1.818,1.8215,1.8223,1.8234,1.8251,1.8257,1.8266,1.8279,1.8296,1.8304,1.8323,1.8334,1.835,1.8345,1.8323,1.8388,1.8357,1.8388,1.8389,1.8403,1.8403,1.8495,1.841,1.841,1.8409,1.8409,0,1.8214,1.8246,1.8241,1.8263,1.8299,1.829,1.8327,1.833,1.8339,1.8362,1.8346,1.8368,1.836,1.8381,1.8377,1.8413,1.8418,1.8418,1.8417,1.842,1.842,1.8428,1.8424,1.8412,1.8411,1.8411,1.841,0,1.8282,1.828,1.8318,1.8325,1.8328,1.8355,1.8361,1.8382,1.8382,1.8411,1.8417,1.8417,1.8441,1.8438,1.8465,1.8462,1.8507,1.85,1.8503,1.8502,1.8534,1.8531,1.8635,1.8648,1.8554,1.8555,1.8556,0,1.8327,1.8351,1.8362,1.8376,1.8383,1.8406,1.8419,1.8412,1.8427,1.8442,1.8462,1.8485,1.8503,1.8543,1.8545,1.8566,1.856,1.8595,1.8563,1.8566,1.8562,1.8561,1.8564,1.8601,1.8603,1.8603,1.8604,0,1.8406,1.8404,1.8423,1.8443,1.846,1.8475,1.8489,1.8501,1.8495,1.8512,1.8537,1.8551,1.8579,1.8603,1.8623,1.8628,1.8616,1.8614,1.8623,1.8626,1.8628,1.8628,1.8522,1.8612,1.8611,1.8611,1.861,1.861,1.8464,1.8486,1.8497,1.852,1.853,1.8543,1.8563,1.8566,1.8587,1.8609,1.8603,1.8632,1.8644,1.8669,1.8677,1.8699,1.8687,1.8699,1.8702,1.8705,1.8709,1.8623,1.8703,1.8703,1.8702,1.8702,1.8702,0,1.8544,1.855,1.8571,1.8591,1.861,1.8596,1.861,1.8627,1.8652,1.8664,1.8682,1.8712,1.8735,1.8739,1.8761,1.8778,1.8773,1.8784,1.8783,1.8785,1.8719,1.871,1.8788,1.8788,1.8788,1.8788,1.8788,1.8788,1.8587,1.8624,1.8623,1.8664,1.867,1.8698,1.8708,1.872,1.873,1.8763,1.8782,1.8785,1.8794,1.8817,1.8837,1.8838,1.8847,1.8861,1.886,1.8798,1.879,1.8781,1.8773,1.8863,1.8863,1.8924,1.8925,1.8925]},{"header":{"parameterUnit":"m.s-1","parameterCategory":1,"la1":30.2991,"la2":30.254,"lo1":-89.0895,"lo2":-89.0444,"dy":0.0017,"dx":0.0017,"nx":28,"ny":28,"refTime":"2024-08-03T09:00:00:Z","depth":0,"parameterNumber":3,"parameterNumberName":"V-component_of_WINDS"},"data":[0,0,0,0,0,0,0,0,0,0,0,0,0,0,0,0,0,0,0,0,0,0,0,0,0,0,0,0,0,0,0,0,0,0,0,0,0,0,0,0,0,0,0,0,0,0,0,0,0,0,0,0,0,0,0,0,0,0,-1.6794,-1.6795,0,-1.6846,-1.6846,-1.6847,-1.6826,-1.6825,-1.6824,-1.6823,-1.6875,-1.6878,-1.688,0,0,0,0,0,0,0,0,0,0,0,0,0,-1.6678,-1.668,-1.6794,-1.6795,-1.6795,-1.6846,-1.6846,-1.6847,-1.6827,-1.6825,-1.6824,-1.6822,-1.6875,-1.6878,-1.6881,0,0,0,0,0,0,0,0,0,0,0,0,0,-1.6729,-1.6681,-1.6794,-1.6791,-1.6792,-1.6845,-1.6846,-1.6847,-1.6827,-1.6825,-1.6823,-1.6822,-1.6874,-1.6877,-1.6881,-1.6941,0,0,-1.6893,-1.6894,0,0,0,0,0,0,0,0,-1.6726,-1.6733,-1.6791,-1.6792,-1.6792,-1.6828,-1.6825,-1.6879,-1.6827,-1.6813,-1.6823,-1.6821,-1.6861,-1.6866,-1.6879,-1.6943,-1.6945,-1.6893,-1.6895,-1.6897,-1.6898,0,0,0,0,0,0,0,-1.6723,-1.6731,-1.6814,-1.6792,-1.6792,-1.6787,-1.6793,-1.6835,-1.6847,-1.6815,-1.6813,-1.682,-1.6861,-1.6876,-1.688,-1.6946,-1.6893,-1.6896,-1.6899,-1.69,-1.7061,-1.7063,0,0,0,0,0,0,-1.6719,-1.6728,-1.6813,-1.6816,-1.6754,-1.6791,-1.6797,-1.6818,-1.6846,-1.6849,-1.6821,-1.6818,-1.687,-1.6876,-1.6882,-1.6954,-1.6897,-1.69,-1.6903,-1.7059,-1.7062,-1.7064,0,0,0,0,0,0,-1.6716,-1.6727,-1.6811,-1.6772,-1.6782,-1.6795,-1.6819,-1.682,-1.6835,-1.6851,-1.6853,-1.6834,-1.6869,-1.6877,-1.6926,-1.6955,-1.6902,-1.6906,-1.7057,-1.706,-1.7063,-1.7098,0,0,0,0,0,0,-1.6713,-1.6726,-1.6749,-1.6772,-1.6784,-1.6854,-1.6821,-1.6822,-1.6841,-1.6838,-1.6864,-1.6866,-1.6868,-1.6921,-1.693,-1.696,-1.6909,-1.7054,-1.7058,-1.7062,-1.7094,-1.7101,-1.7108,0,0,0,0,0,-1.6709,-1.6756,-1.675,-1.676,-1.6813,-1.6856,-1.6863,-1.6864,-1.6844,-1.6867,-1.6877,-1.6866,-1.6951,-1.6926,-1.6936,-1.6967,-1.7053,-1.7057,-1.7062,-1.7091,-1.71,-1.7108,0,0,0,0,0,0,-1.6736,-1.6759,-1.6753,-1.6809,-1.6831,-1.6852,-1.6881,-1.6873,-1.6901,-1.6897,-1.6897,-1.6903,-1.6954,-1.6966,-1.6938,-1.7027,-1.6999,-1.7005,-1.7017,-1.7026,-1.7033,-1.7029,-1.6912,0,0,0,0,0,-1.6748,-1.6781,-1.68,-1.6848,-1.6859,-1.6868,-1.6887,-1.6886,-1.6909,-1.6918,-1.6932,-1.6954,-1.6986,-1.7006,-1.7037,-1.7095,-1.7101,-1.7122,-1.7129,-1.7135,-1.714,-1.7172,-1.7182,-1.7079,-1.7079,-1.7079,0,0,-1.6774,-1.6791,-1.6812,-1.6854,-1.687,-1.6904,-1.6876,-1.6913,-1.6939,-1.6923,-1.6971,-1.6982,-1.7007,-1.7061,-1.7086,-1.7072,-1.717,-1.714,-1.7145,-1.7148,-1.7178,-1.7188,-1.7196,-1.7082,-1.7081,-1.7081,0,0,-1.6839,-1.6855,-1.6897,-1.6914,-1.6939,-1.6945,-1.6955,-1.6979,-1.6985,-1.7033,-1.7022,-1.7052,-1.7107,-1.7125,-1.7141,-1.7213,-1.7203,-1.7223,-1.7259,-1.7291,-1.7299,-1.7306,-1.7331,-1.7341,-1.7229,-1.7229,-1.7229,0,-1.6868,-1.6919,-1.6919,-1.6957,-1.6976,-1.6964,-1.7006,-1.7022,-1.7057,-1.707,-1.7054,-1.7123,-1.7138,-1.7197,-1.7214,-1.7228,-1.7239,-1.722,-1.7297,-1.7305,-1.7311,-1.7336,-1.7345,-1.7231,-1.7231,-1.7231,-1.723,0,-1.6953,-1.6988,-1.7019,-1.7052,-1.7074,-1.7114,-1.7121,-1.7143,-1.714,-1.7148,-1.7197,-1.7215,-1.7249,-1.7263,-1.726,-1.7321,-1.7312,-1.7297,-1.7269,-1.7323,-1.7346,-1.7356,-1.7234,-1.7233,-1.7233,-1.7232,0,0,-1.7036,-1.7069,-1.708,-1.7095,-1.7122,-1.715,-1.7189,-1.7222,-1.7241,-1.7265,-1.7298,-1.7345,-1.7331,-1.735,-1.735,-1.7377,-1.7433,-1.7359,-1.7359,-1.7372,-1.75,-1.7511,-1.7522,-1.7426,-1.7428,-1.7429,-1.7498,0,-1.7102,-1.7172,-1.7173,-1.7237,-1.7269,-1.7258,-1.7293,-1.7313,-1.7321,-1.735,-1.7359,-1.7392,-1.7372,-1.7383,-1.741,-1.742,-1.7458,-1.7415,-1.7457,-1.7458,-1.7451,-1.7534,-1.7546,-1.761,-1.7507,-1.7509,-1.751,0,-1.719,-1.7216,-1.7283,-1.7306,-1.732,-1.735,-1.7381,-1.7409,-1.7432,-1.7436,-1.7457,-1.7452,-1.7492,-1.7463,-1.7518,-1.7489,-1.7506,-1.7514,-1.7516,-1.752,-1.7487,-1.754,-1.7631,-1.764,-1.7524,-1.7523,-1.7522,0,-1.7243,-1.7296,-1.7343,-1.7356,-1.7384,-1.7405,-1.7418,-1.7439,-1.7459,-1.7486,-1.7498,-1.7529,-1.7546,-1.757,-1.7574,-1.7552,-1.763,-1.7601,-1.7634,-1.7634,-1.7651,-1.765,-1.7745,-1.7662,-1.7662,-1.7662,-1.7662,0,-1.7318,-1.7359,-1.7367,-1.7396,-1.7442,-1.7443,-1.7488,-1.7499,-1.7518,-1.7549,-1.7541,-1.757,-1.7574,-1.7604,-1.7607,-1.7652,-1.766,-1.7664,-1.7665,-1.7665,-1.7664,-1.7676,-1.7672,-1.7664,-1.7664,-1.7663,-1.7663,0,-1.7385,-1.7392,-1.7443,-1.7465,-1.7471,-1.7504,-1.7523,-1.755,-1.7558,-1.7597,-1.7606,-1.7618,-1.7652,-1.7659,-1.77,-1.7702,-1.7756,-1.7752,-1.7748,-1.7748,-1.7781,-1.7778,-1.7887,-1.7901,-1.7809,-1.781,-1.7811,0,-1.7432,-1.7464,-1.7489,-1.7509,-1.7523,-1.7555,-1.7575,-1.7578,-1.7599,-1.7628,-1.7652,-1.7686,-1.7713,-1.7769,-1.7781,-1.7812,-1.7809,-1.7845,-1.7814,-1.7813,-1.7809,-1.7807,-1.7811,-1.7851,-1.7852,-1.7853,-1.7854,0,-1.7515,-1.7517,-1.7546,-1.7577,-1.7601,-1.7625,-1.7648,-1.7665,-1.7671,-1.7695,-1.7731,-1.7752,-1.7794,-1.7827,-1.7859,-1.7871,-1.7864,-1.7863,-1.7873,-1.7873,-1.787,-1.7872,-1.7765,-1.7861,-1.786,-1.786,-1.7859,-1.7859,-1.7574,-1.7601,-1.7623,-1.7656,-1.7674,-1.7695,-1.7722,-1.7733,-1.7763,-1.7797,-1.7797,-1.7836,-1.7858,-1.7899,-1.7914,-1.7944,-1.7933,-1.7946,-1.795,-1.7953,-1.7956,-1.7865,-1.795,-1.795,-1.7949,-1.7949,-1.7949,0,-1.7656,-1.7669,-1.77,-1.7732,-1.7758,-1.7749,-1.7773,-1.7796,-1.783,-1.7851,-1.7879,-1.7919,-1.7952,-1.7967,-1.7999,-1.802,-1.8018,-1.8029,-1.8027,-1.803,-1.7965,-1.7953,-1.8031,-1.8031,-1.803,-1.803,-1.803,-1.803,-1.7702,-1.7747,-1.7752,-1.7807,-1.782,-1.7858,-1.7873,-1.7893,-1.791,-1.7956,-1.7983,-1.7993,-1.8012,-1.8045,-1.8075,-1.8078,-1.809,-1.8103,-1.8105,-1.8043,-1.8035,-1.8027,-1.8016,-1.8106,-1.8106,-1.8168,-1.8169,-1.8169]}]]